Wind_Speed
4 5 11 12 9 8 3 3 5 3 5 3 7 12 10 7 9 12 13 12 13 13 19 29 33 33 33 34 34 36 38 44 40 36 34 36 39 39 37 45 46 45 42 42
3 16 8 6 7 7 7 9 4 5 4 3 12 19 13 6 8 15 18 16 16 15 12 19 29 34 34 36 37 37 38 40 40 37 39 38 37 33 34 35 43 46 46 45
15 4 10 8 5 7 6 11 5 7 0 4 6 22 13 13 6 10 11 12 14 14 17 17 19 25 31 33 35 36 39 40 41 42 37 32 30 29 28 33 36 47 47 47
9 10 7 6 12 9 12 6 6 5 3 7 6 11 3 5 10 7 11 12 8 13 14 14 18 22 28 34 34 35 36 39 41 41 35 35 35 33 38 36 37 39 43 46
6 11 13 13 7 9 4 6 8 6 5 2 11 6 1 2 7 14 9 9 10 9 10 15 19 26 30 29 30 32 35 38 40 37 38 36 35 36 34 31 33 37 36 43
5 2 8 7 5 10 5 4 2 2 3 8 11 8 20 6 7 6 3 9 8 10 12 13 22 24 26 30 30 30 31 34 35 36 38 39 36 35 31 30 31 33 34 36
5 7 2 3 5 2 5 5 2 2 6 8 3 7 18 6 9 9 8 10 10 8 8 10 14 21 22 29 29 23 19 26 29 32 35 39 40 38 39 36 33 33 32 33
12 4 13 7 11 6 8 11 7 5 4 4 3 6 8 10 9 5 4 6 5 7 8 10 15 23 26 30 35 31 21 16 17 24 32 38 40 36 35 33 32 33 34 35
8 8 2 5 5 14 6 10 13 3 1 1 4 7 11 11 15 3 4 4 6 7 8 12 17 25 29 31 31 33 34 33 31 24 23 31 32 31 33 33 33 33 34 33
7 1 6 8 4 7 8 8 2 4 6 10 5 5 8 6 2 5 5 8 9 7 8 13 18 25 28 31 34 36 36 31 31 33 28 23 23 27 34 34 34 33 35 35
5 3 1 7 9 15 7 7 4 4 4 4 2 6 8 11 5 3 2 5 6 7 9 10 15 20 24 30 34 34 37 33 38 37 36 31 30 26 25 32 36 36 37 37
6 4 5 9 2 6 18 17 15 7 6 3 3 10 6 7 5 4 1 3 7 8 9 10 16 20 24 28 30 29 33 32 34 38 37 35 30 29 27 24 29 34 35 37
11 5 2 6 4 1 6 11 11 10 2 13 4 10 1 6 5 6 8 8 6 8 10 11 16 19 22 24 29 29 29 29 33 37 36 37 34 32 31 31 30 29 31 33
17 4 12 14 4 6 7 7 12 12 5 16 15 20 25 3 4 7 6 6 7 8 10 11 12 18 21 23 24 28 30 29 32 35 31 32 33 32 34 34 31 30 29 30
11 8 6 4 4 5 7 11 12 17 25 10 19 16 3 4 4 5 6 7 8 9 11 12 13 16 20 24 26 27 26 29 34 32 29 31 30 33 36 35 35 35 32 29
7 5 9 4 6 5 4 8 11 15 10 14 14 20 5 5 7 6 7 7 8 8 9 11 12 18 20 26 28 28 31 29 34 29 29 29 31 35 35 36 38 37 34 32
10 5 3 6 1 5 8 20 12 7 7 13 14 16 5 4 5 4 5 7 8 9 11 13 14 19 21 25 27 25 30 32 30 29 31 29 33 34 32 35 35 34 34 33
12 11 3 3 2 8 5 3 11 21 15 14 4 5 5 4 2 8 7 7 7 9 12 12 18 23 25 27 24 27 28 27 27 28 26 31 36 36 37 37 35 35 35 34
16 11 4 5 5 5 5 5 7 8 9 5 9 7 4 2 5 3 6 7 7 9 13 16 21 25 28 27 29 30 29 28 29 27 32 34 35 38 39 38 38 37 36 35
4 15 10 3 6 10 5 1 3 4 10 6 8 8 5 2 4 3 7 9 10 14 15 19 20 22 22 27 29 30 28 29 27 33 35 35 34 36 38 39 38 39 35 36
8 8 15 7 4 7 5 4 2 7 4 8 5 8 5 4 2 3 8 10 13 14 17 17 17 20 22 25 28 27 28 26 32 33 34 34 34 36 36 37 36 37 36 37
11 10 6 3 3 12 1 4 10 4 7 9 6 5 6 3 2 4 6 7 10 12 14 17 18 19 21 23 25 26 26 30 31 32 33 35 35 34 35 36 36 35 32 33
4 6 7 7 5 2 3 4 4 3 6 4 6 6 5 4 2 2 3 5 9 12 15 17 18 19 19 22 22 25 28 30 32 32 33 33 34 34 33 34 33 33 29 27
2 0 4 4 3 4 6 6 5 6 9 9 7 6 5 4 2 1 3 5 8 10 13 16 18 18 21 24 24 24 27 30 30 31 32 31 32 35 35 34 30 31 30 28
2 3 5 2 1 2 5 4 8 9 9 8 7 6 6 3 3 2 2 3 6 9 12 13 15 17 19 23 26 29 29 30 30 30 28 29 31 32 35 34 32 33 33 34
4 5 6 7 7 3 3 13 10 10 8 6 7 6 5 4 3 2 2 2 5 9 12 14 14 16 21 24 24 28 32 31 29 28 29 29 30 32 31 33 37 34 34 36
Wind_Direction
168 194 211 207 218 229 131 186 210 215 238 256 257 276 277 276 300 286 283 280 276 268 263 272 279 277 274 269 260 255 245 246 232 224 220 224 227 231 232 231 238 240 241 239
175 222 203 189 209 217 230 237 219 245 211 235 273 275 275 244 249 269 277 279 273 276 273 258 263 270 270 269 265 257 249 245 231 222 223 224 227 234 234 235 234 242 244 240
211 242 177 184 177 194 216 228 195 227 24 265 288 278 265 265 243 262 266 252 265 263 276 281 274 269 276 271 265 257 253 249 237 230 224 226 230 236 234 230 235 239 240 242
229 234 179 188 216 180 237 196 192 216 195 255 161 286 160 261 274 251 265 283 271 272 281 281 283 280 278 277 275 266 258 253 241 235 220 216 218 222 227 229 234 232 237 239
211 179 187 208 190 179 220 158 175 184 210 281 242 270 219 194 277 273 273 267 278 283 281 288 291 289 289 289 289 280 265 250 244 231 222 220 222 228 232 230 231 234 233 237
230 210 188 193 157 183 137 100 59 101 208 247 244 201 280 253 230 292 281 288 314 311 309 311 319 314 301 309 302 294 268 250 244 234 229 222 225 227 230 231 228 230 230 231
163 212 219 152 121 74 167 115 271 307 213 238 149 189 245 294 278 247 275 303 310 327 317 337 344 356 352 352 339 319 285 253 247 239 230 230 228 229 230 229 227 230 229 227
207 227 183 186 198 162 205 200 217 204 210 238 142 225 251 247 268 312 247 269 320 348 337 347 351 355 357 7 8 3 349 299 271 253 247 242 238 235 239 240 239 239 237 236
184 234 138 183 155 168 188 200 219 306 139 7 227 279 285 270 277 294 51 353 4 354 349 357 3 6 10 10 13 16 16 18 18 356 291 259 249 246 246 247 245 244 245 245
200 193 192 191 128 212 172 152 138 178 235 243 239 250 242 271 86 133 3 6 352 347 0 16 21 18 15 13 10 13 13 17 14 9 3 347 308 275 262 253 251 248 248 248
153 130 46 124 204 193 191 208 196 137 170 189 229 251 211 251 215 177 105 341 336 355 32 28 17 17 16 13 12 8 8 7 6 1 355 350 349 337 302 274 260 254 252 249
178 156 193 206 213 204 217 220 209 217 217 234 282 266 139 152 148 126 299 353 37 45 25 22 22 15 13 13 3 6 3 359 356 354 351 351 346 341 332 314 292 276 262 256
172 207 76 332 342 65 195 214 219 226 72 229 180 259 135 121 27 11 39 63 48 39 23 16 16 15 4 8 1 353 0 353 347 348 348 347 346 345 338 329 319 306 291 276
169 189 206 220 213 141 194 186 194 200 200 243 226 254 260 287 305 34 67 62 52 37 22 12 8 3 1 358 348 351 356 348 343 343 342 340 340 339 336 332 327 321 311 298
171 222 204 247 185 172 195 203 185 204 224 196 245 226 181 165 137 106 78 56 41 28 16 6 357 353 351 349 348 345 341 342 342 336 337 335 333 332 334 333 332 327 321 314
188 236 184 239 197 196 224 218 205 215 224 232 250 257 122 120 101 85 69 50 31 12 3 355 350 348 347 345 341 337 339 338 334 331 331 331 334 333 331 330 329 328 323 318
190 166 112 243 169 116 272 236 204 203 199 202 224 242 155 121 107 121 89 57 25 1 353 346 345 342 340 336 334 336 332 329 328 329 329 332 333 328 325 325 325 323 322 320
184 196 180 169 121 215 254 317 211 213 220 213 156 127 120 117 82 113 77 49 14 3 348 342 338 337 335 333 334 332 329 329 328 327 330 333 330 326 324 323 323 321 319 316
199 177 170 162 197 299 261 206 171 172 246 169 133 138 142 131 129 150 69 34 14 356 345 337 337 333 330 332 334 333 332 333 334 336 334 331 328 323 322 320 320 318 314 310
216 186 204 149 175 209 246 147 108 116 261 164 137 143 149 147 160 168 8 9 360 353 347 339 334 329 331 335 336 334 335 336 339 335 330 327 324 318 315 312 312 312 308 305
191 197 212 199 216 283 227 165 155 162 238 133 123 134 143 144 80 9 355 359 351 342 334 336 339 338 337 336 337 335 334 337 332 328 326 323 320 315 312 308 307 305 307 306
175 178 197 112 177 252 93 105 177 142 98 131 122 127 145 122 33 354 337 330 340 343 343 348 343 340 341 341 340 335 333 331 330 328 324 323 321 318 314 311 310 306 302 303
190 186 187 186 200 54 21 65 70 105 135 148 134 134 133 131 103 306 321 342 349 349 345 347 345 340 342 341 343 334 330 332 330 329 325 325 325 322 319 315 312 308 303 301
180 89 129 131 139 138 124 90 89 86 118 123 116 126 113 115 190 70 11 3 353 347 346 347 346 343 336 337 335 333 331 333 332 330 329 331 331 327 325 321 318 315 310 305
140 87 114 72 132 104 217 193 142 122 119 116 109 115 123 157 114 66 51 12 342 339 344 345 345 338 331 333 336 341 339 338 336 332 334 336 335 331 327 323 320 316 311 307
175 165 187 220 177 131 152 155 149 142 138 131 136 122 108 102 100 72 71 26 360 353 348 343 337 333 336 342 337 345 349 345 339 334 337 339 337 332 332 327 325 326 322 319
Height
832 837 833 837 836 834 839 849 852 847 843 844 845 838 834 828 826 823 818 815 811 807 802 798 795 793 792 791 790 791 792 791 796 799 802 804 802 804 807 802 808 811 815 818
834 827 829 829 835 839 840 846 852 845 838 841 837 827 824 826 823 817 812 808 804 800 795 791 787 784 783 782 782 781 780 783 786 790 791 793 795 799 799 802 799 804 807 809
823 822 824 828 836 842 844 845 849 848 841 842 842 822 825 815 815 812 809 805 800 797 791 785 783 779 776 774 773 773 773 772 776 779 783 788 791 793 794 793 793 788 794 801
824 819 828 832 833 836 841 836 843 845 848 846 840 823 817 816 812 809 805 799 800 794 787 783 778 773 771 767 766 766 765 765 767 770 775 777 777 780 780 782 785 784 781 788
821 825 827 829 827 833 834 835 842 845 849 850 840 846 810 811 813 805 798 797 792 791 789 781 774 769 764 761 759 757 755 756 758 762 766 770 771 772 774 777 777 779 778 776
819 819 820 820 824 826 830 836 842 846 848 845 830 843 800 809 804 800 795 794 793 791 786 779 773 764 759 755 753 750 748 749 752 755 758 761 763 765 767 770 770 770 770 771
822 820 817 815 825 827 828 838 849 868 845 841 828 840 806 795 799 797 798 796 793 791 787 779 773 765 758 754 751 749 747 746 748 750 752 754 754 756 757 758 760 762 763 762
811 827 816 813 812 825 831 833 835 844 854 835 836 830 805 793 789 792 792 793 792 791 786 780 777 770 765 759 758 754 751 749 748 748 749 750 750 751 753 755 756 756 756 754
815 811 803 806 808 811 828 826 820 843 868 856 833 819 799 790 784 788 791 791 792 789 785 782 779 776 771 766 764 762 760 754 751 752 752 752 749 748 749 749 749 750 751 750
801 808 801 805 804 808 812 817 832 843 836 830 822 824 808 794 785 791 792 793 791 788 785 783 783 781 778 774 770 765 763 759 756 755 755 753 750 747 746 745 743 742 742 744
798 799 807 807 805 800 808 812 811 819 836 841 846 812 791 785 787 787 789 793 791 790 791 790 790 788 785 780 774 771 768 765 760 759 757 750 747 743 742 741 738 735 734 735
799 805 814 805 796 796 793 793 803 813 829 824 822 799 781 785 785 788 792 792 793 798 797 794 791 791 787 784 783 776 771 769 768 762 758 751 747 742 741 738 736 732 728 726
787 800 840 818 803 797 799 794 794 801 816 807 823 794 772 783 785 785 791 798 799 800 800 798 795 791 792 786 785 784 775 773 771 764 757 751 747 742 739 735 731 728 723 720
777 790 783 782 776 787 792 793 794 799 822 793 796 783 762 778 782 790 800 801 802 803 803 802 799 796 793 793 794 781 774 776 772 765 759 754 749 744 739 734 728 723 718 715
777 793 787 782 777 780 780 779 792 791 778 795 775 787 778 779 785 801 803 804 805 806 806 806 803 799 797 794 789 786 786 776 771 768 760 755 750 744 737 731 724 718 712 707
773 778 782 797 784 780 780 783 785 780 782 785 780 777 781 795 799 805 807 808 809 810 810 809 807 804 799 795 790 786 782 775 774 768 761 754 747 740 735 727 720 714 707 701
765 776 797 791 789 785 788 763 779 779 778 773 780 758 784 795 798 804 810 811 814 813 811 809 807 805 802 800 796 789 784 779 772 766 758 751 745 740 735 727 719 712 704 697
758 772 783 802 803 779 754 762 754 757 758 763 773 790 791 797 802 808 813 815 815 814 813 810 807 804 801 798 793 790 785 779 772 766 759 753 745 737 730 723 714 707 700 693
742 761 773 780 815 783 761 759 765 765 760 777 785 795 797 800 804 811 814 816 816 816 814 811 808 805 800 796 791 784 778 772 766 761 756 750 744 734 726 717 710 704 697 689
750 746 759 799 775 787 755 749 752 753 756 783 783 793 796 797 794 801 812 813 813 814 813 811 809 805 800 795 789 783 776 770 765 760 753 748 742 735 725 717 708 701 694 684
744 749 745 770 774 781 751 753 756 769 754 782 786 792 798 796 804 811 811 811 812 813 814 812 809 804 800 795 789 783 777 771 766 759 753 746 739 731 723 714 707 698 688 679
731 738 741 773 768 752 762 758 751 761 780 786 793 796 799 804 808 811 814 814 813 813 812 810 808 804 799 794 790 785 779 773 765 758 750 741 734 728 720 711 701 693 686 676
735 721 728 742 740 769 774 771 776 774 782 791 792 798 802 805 809 812 813 813 812 812 811 809 806 803 799 795 790 786 780 772 763 755 746 737 730 725 719 710 700 691 682 672
723 728 731 740 762 772 777 780 780 781 786 792 796 799 801 805 808 809 810 811 811 811 810 808 805 802 799 795 789 785 780 771 761 751 743 734 727 719 714 707 698 688 679 668
734 732 745 766 777 777 775 778 780 785 789 793 797 798 801 804 806 808 810 811 810 809 807 806 804 802 799 794 787 783 778 770 760 752 741 732 727 720 711 705 697 687 679 671
740 733 730 723 741 746 756 769 778 784 790 794 796 800 803 805 807 808 808 809 808 806 805 804 802 800 795 790 787 781 774 767 760 752 742 733 728 722 712 703 690 684 675 665